Weather History for ESDF - March, 2013

Change the Weather History Date:

Wednesday, March 20, 2013

  Actual Average Record
Temperature  
Mean Temperature 27 °F -  
Max Temperature 30 °F - - ()
Min Temperature 24 °F - - ()
Degree Days  
Heating Degree Days 38    
Moisture  
Dew Point 21 °F    
Average Humidity 75    
Maximum Humidity 86    
Minimum Humidity 61    
Precipitation  
Precipitation 0.03 in - - ()
Sea Level Pressure  
Sea Level Pressure 29.83 in    
Wind  
Wind Speed 13 mph ()    
Max Wind Speed 18 mph    
Max Gust Speed -    
Visibility 6.3 miles    
Events Rain , Snow    
T = Trace of Precipitation, MM = Missing Value Source: Averaged Metar Reports

Daily Weather History Graph

Daily Weather History Graph

Search for Another Location

Airport or City:

Trip Planner

Search our weather history database for the weather conditions in past years. The results will help you decide how hot, cold, wet, or windy it might be!

Date:

Astronomy

Mar. 20, 2013 Rise Set
Actual Time 6:00 AM CET 6:12 PM CET
Civil Twilight 5:23 AM CET 6:50 PM CET
Nautical Twilight 4:39 AM CET 7:35 PM CET
Astronomical Twilight 3:52 AM CET 8:22 PM CET
Moon 10:30 AM CET (3/20) 2:30 AM CET (3/20)
Length of Visible Light 13h 26m
Length of Day
12h 11m
First Quarter, 57% of the Moon is Illuminated
Mar 20
First Quarter
Mar 27
Full
Apr 3
Last Quarter
Apr 10
New
Apr 18
First Quarter

Hourly Weather History & Observations

Time (CET) Temp. Windchill Dew Point Humidity Pressure Visibility Wind Dir Wind Speed Gust Speed Precip Events Conditions
12:00 AM 27 °F - 21 °F 69% 29.71 in 28 mi NE 15.7 mph - -   Light Freezing Rain
12:20 AM 28.4 °F 16.2 °F 21.2 °F 74% 29.68 in 6.2 mi NE 17.3 mph - N/A   Overcast
12:50 AM 28.4 °F 17.5 °F 21.2 °F 74% 29.68 in 6.2 mi NE 13.8 mph - N/A   Overcast
1:00 AM 27 °F - 21 °F 69% 29.72 in 28 mi NE 15.7 mph - -   Clear
1:20 AM 28.4 °F 18.0 °F 21.2 °F 74% 29.68 in 6.2 mi NE 12.7 mph - N/A   Overcast
1:50 AM 28.4 °F 17.5 °F 21.2 °F 74% 29.68 in 6.2 mi NE 13.8 mph - N/A   Overcast
2:00 AM 28 °F - 20 °F 63% 29.72 in 28 mi NE 15.7 mph - -   Overcast
2:20 AM 28.4 °F 17.5 °F 19.4 °F 69% 29.68 in 6.2 mi NE 13.8 mph - N/A   Overcast
2:50 AM 28.4 °F 17.5 °F 21.2 °F 74% 29.68 in 6.2 mi NE 13.8 mph - N/A   Overcast
3:00 AM 28 °F - 20 °F 63% 29.72 in 28 mi NE 13.4 mph - -   Overcast
3:20 AM 28.4 °F 17.5 °F 21.2 °F 74% 29.68 in 6.2 mi NE 13.8 mph - N/A   Overcast
3:50 AM 28.4 °F 17.0 °F 21.2 °F 74% 29.68 in 6.2 mi NE 15.0 mph - N/A   Overcast
4:20 AM 28.4 °F 17.5 °F 21.2 °F 74% 29.71 in 6.2 mi NE 13.8 mph - N/A   Overcast
4:50 AM 28.4 °F 17.0 °F 21.2 °F 74% 29.71 in 6.2 mi NE 15.0 mph - N/A   Overcast
5:00 AM 28 °F - 20 °F 63% 29.74 in 28 mi NE 15.7 mph - -   Overcast
5:20 AM 28.4 °F 16.6 °F 21.2 °F 74% 29.71 in 6.2 mi NE 16.1 mph - N/A   Overcast
5:50 AM 28.4 °F 17.5 °F 21.2 °F 74% 29.71 in 6.2 mi NE 13.8 mph - N/A   Overcast
6:00 AM 28 °F - 20 °F 63% 29.75 in 19 mi NE 15.7 mph - -   Mostly Cloudy
6:20 AM 26.6 °F 13.8 °F 21.2 °F 80% 29.74 in 6.2 mi NE 17.3 mph - N/A   Mostly Cloudy
6:50 AM 26.6 °F 14.3 °F 21.2 °F 80% 29.74 in 3.7 mi NE 16.1 mph - N/A Snow Light Snow
7:00 AM 27 °F - 21 °F 70% 29.77 in 2 mi NE 13.4 mph - - Snow Light Snow
7:20 AM 26.6 °F 16.2 °F 21.2 °F 80% 29.74 in 2.2 mi NE 11.5 mph - N/A Snow Light Snow
7:50 AM 26.6 °F 16.2 °F 21.2 °F 80% 29.77 in 2.2 mi NE 11.5 mph - N/A Snow Light Snow
8:00 AM 26 °F - 22 °F 80% 29.78 in 2 mi NE 11.2 mph - - Snow Light Snow
8:20 AM 26.6 °F 16.2 °F 23.0 °F 86% 29.77 in 1.9 mi NE 11.5 mph - N/A Snow Light Snow
8:50 AM 26.6 °F 16.2 °F 23.0 °F 86% 29.77 in 5.0 mi NE 11.5 mph - N/A Snow Light Snow
9:00 AM 27 °F - 23 °F 79% 29.80 in 4 mi NE 11.2 mph - - Snow Light Snow
9:20 AM 28.4 °F 17.5 °F 23.0 °F 80% 29.77 in 5.6 mi NE 13.8 mph - N/A Snow Light Snow
9:50 AM 28.4 °F 17.5 °F 23.0 °F 80% 29.77 in 6.2 mi NE 13.8 mph - N/A Snow Light Snow
10:20 AM 28.4 °F 17.5 °F 21.2 °F 74% 29.80 in 6.2 mi NE 13.8 mph - N/A Snow Light Snow
10:50 AM 28.4 °F 18.0 °F 21.2 °F 74% 29.80 in 6.2 mi NE 12.7 mph - N/A Snow Light Snow
11:00 AM 29 °F - 21 °F 61% 29.82 in 16 mi ENE 15.7 mph - - Snow Light Snow
11:20 AM 28.4 °F 16.6 °F 21.2 °F 74% 29.80 in 6.2 mi NE 16.1 mph - N/A   Mostly Cloudy
11:50 AM 28.4 °F 17.5 °F 21.2 °F 74% 29.80 in 3.7 mi NE 13.8 mph - N/A Snow Light Snow Showers
12:00 PM 29 °F - 22 °F 66% 29.84 in 4 mi NE 13.4 mph - - Snow Light Snow Showers
12:20 PM 28.4 °F 18.0 °F 23.0 °F 80% 29.83 in 4.3 mi ENE 12.7 mph - N/A Snow Light Snow Showers
12:50 PM 28.4 °F 17.0 °F 23.0 °F 80% 29.83 in 6.2 mi NE 15.0 mph - N/A Snow Light Snow Showers
1:00 PM 28 °F - 22 °F 72% 29.86 in 7 mi ENE 13.4 mph - - Snow Light Snow Showers
1:20 PM 28.4 °F 17.0 °F 23.0 °F 80% 29.83 in 6.2 mi NE 15.0 mph - N/A Snow Light Snow Showers
1:50 PM 28.4 °F 18.0 °F 21.2 °F 74% 29.86 in 6.2 mi ENE 12.7 mph - N/A Snow Light Snow Showers
2:00 PM 28 °F - 21 °F 66% 29.88 in 6 mi NE 13.4 mph - - Snow Light Snow Showers
2:20 PM 28.4 °F 16.2 °F 19.4 °F 69% 29.86 in 6.2 mi NE 17.3 mph - N/A   Mostly Cloudy
2:50 PM 28.4 °F 16.6 °F 19.4 °F 69% 29.86 in 6.2 mi NE 16.1 mph - N/A Snow Light Snow Showers
3:00 PM 28 °F - 20 °F 62% 29.89 in 12 mi NE 17.9 mph - - Snow Light Snow Showers
3:20 PM 26.6 °F 14.7 °F 21.2 °F 80% 29.89 in 6.2 mi ENE 15.0 mph - N/A Snow Light Snow Showers
3:50 PM 26.6 °F 14.7 °F 19.4 °F 74% 29.89 in 6.2 mi ENE 15.0 mph - N/A Snow Light Snow Showers
4:20 PM 28.4 °F 18.0 °F 21.2 °F 74% 29.89 in 5.6 mi NE 12.7 mph - N/A Snow Light Snow Showers
4:50 PM 28.4 °F 17.5 °F 19.4 °F 69% 29.89 in 6.2 mi NE 13.8 mph - N/A   Overcast
5:00 PM 27 °F - 20 °F 64% 29.93 in 31 mi NE 13.4 mph - - Snow Snow
5:20 PM 26.6 °F 15.7 °F 19.4 °F 74% 29.92 in 6.2 mi NE 12.7 mph - N/A   Overcast
5:50 PM 26.6 °F 15.7 °F 19.4 °F 74% 29.92 in 6.2 mi NE 12.7 mph - N/A Snow Light Snow
6:00 PM 26 °F - 19 °F 66% 29.95 in 31 mi NE 15.7 mph - - Rain Light Freezing Rain
6:20 PM 26.6 °F 16.2 °F 19.4 °F 74% 29.92 in 6.2 mi NE 11.5 mph - N/A Snow Light Snow
6:50 PM 26.6 °F 16.2 °F 19.4 °F 74% 29.95 in 6.2 mi NE 11.5 mph - N/A Snow Light Snow
7:00 PM 25 °F - 20 °F 73% 29.98 in 28 mi NE 11.2 mph - - Snow Light Snow Showers
7:20 PM 24.8 °F 14.6 °F 21.2 °F 86% 29.95 in 6.2 mi NE 10.4 mph - N/A Snow Light Snow
7:50 PM 24.8 °F 14.0 °F 21.2 °F 86% 29.95 in 6.2 mi NE 11.5 mph - N/A Snow Light Snow
8:00 PM 25 °F - 20 °F 73% 29.99 in 10 mi NE 13.4 mph - - Snow Light Snow
8:20 PM 24.8 °F 13.4 °F 21.2 °F 86% 29.95 in 6.2 mi NE 12.7 mph - N/A Snow Light Snow
8:50 PM 24.8 °F 14.0 °F 19.4 °F 80% 29.98 in 6.2 mi NE 11.5 mph - N/A   Overcast
9:00 PM 24 °F - 20 °F 76% 30.00 in 28 mi NE 11.2 mph - - Rain Light Freezing Drizzle
9:20 PM 24.8 °F 14.0 °F 19.4 °F 80% 29.98 in 6.2 mi NE 11.5 mph - N/A   Mostly Cloudy
9:50 PM 24.8 °F 14.6 °F 19.4 °F 80% 29.98 in 6.2 mi NE 10.4 mph - N/A   Mostly Cloudy
10:20 PM 24.8 °F 14.6 °F 19.4 °F 80% 29.98 in 6.2 mi NE 10.4 mph - N/A   Mostly Cloudy
10:50 PM 24.8 °F 13.4 °F 19.4 °F 80% 29.98 in 6.2 mi NE 12.7 mph - N/A Snow Light Snow
11:00 PM 24 °F - 20 °F 76% 30.01 in 14 mi NE 11.2 mph - - Snow Light Snow Showers
11:20 PM 24.8 °F 14.0 °F 19.4 °F 80% 29.98 in 6.2 mi NNE 11.5 mph - N/A Snow Snow Grains
11:50 PM 24.8 °F 14.6 °F 21.2 °F 86% 30.01 in 6.2 mi NE 10.4 mph - N/A Snow Light Snow